Starlink 31236

operational
NORAD ID: 58841 Int'l Des: 2024-017 Owner: SPXS Country: US Constellation: starlink
LEOCIRCULAR

Starlink 31236について

説明を読み込み中...

リアルタイム位置

3D地球を読み込み中...

次回通過

高度履歴

Altitude vs Time

uPlot chart will show altitude changes over time

軌道要素

1 58841U 24017R 25258.37995244 .00000342 00000-0 23693-4 0 9991
2 58841 53.1605 298.7484 0001480 82.3078 277.8091 15.30192309 93213
Epoch: Sep 15, 2025 • Age: 19 hours

現在のステータス

高度 475.7 km
速度 7.63 km/s
衛星直下点 2.50°N, 117.53°W
打ち上げ日 Jan 24, 2024
運用期間 1.6 years
タイプ internet

技術仕様

分類 Payload
質量 730.00 kg
乾燥質量 700.00 kg
総質量 730.00 kg
長さ 0.30 m
直径 4.10 m
スパン 29.00 m
形状 Box + pan
製造者 SPXS
バスタイプ Starlink V2M
フェーズステータス In Orbit
所有者/国 SPXS/US

大規模コンステレーション

Loading constellations...